Regional Weather Roundup
Issued by NWS Charleston, WV

Home | Current Version | Previous Version | Graphics & Text | Print | Product List | Glossary On
Versions: 1 2 3 4 5 6 7 8 9 10 11 12 13 14 15 16 17 18 19 20 21 22 23 24 25 26 27 28 29 30 31 32 33 34 35 36 37 38 39 40 41 42 43 44 45 46 47 48 49 50
000
ASUS41 KRLX 160410
RWRRLX
West Virginia Regional Weather Roundup
National Weather Service Charleston WV
1100 PM EST MON JAN 15 2018

Note: "fair" indicates few or no clouds below 12,000 feet with no
significant weather and/or obstructions to visibility.

WVZ003-160500-
Northern Panhandle of West Virginia

CITY           SKY/WX    TMP DP  RH WIND       PRES   REMARKS
WHEELING       CLOUDY    25  23  92 CALM      30.29R
$$

WVZ009-160500-
Northwest West Virginia

CITY           SKY/WX    TMP DP  RH WIND       PRES   REMARKS
PARKERSBURG    CLOUDY    31  25  78 W6        30.36R
$$

WVZ006-160500-
Western West Virginia

CITY           SKY/WX    TMP DP  RH WIND       PRES   REMARKS
HUNTINGTON     CLOUDY    34  24  67 W8        30.34R
$$

WVZ015-160500-
West Central West Virginia

CITY           SKY/WX    TMP DP  RH WIND       PRES   REMARKS
CHARLESTON     CLOUDY    32  25  75 S3        30.32R
$$

WVZ022-031-160500-
North Central West Virginia

CITY           SKY/WX    TMP DP  RH WIND       PRES   REMARKS
CLARKSBURG     CLOUDY    36  23  59 SW7       30.29R
MORGANTOWN     CLOUDY    35  22  58 S5        30.29R
$$

WVZ025-035-042-045-160500-
Southern West Virginia

CITY           SKY/WX    TMP DP  RH WIND       PRES   REMARKS
BECKLEY        CLOUDY    30  21  69 S6        30.29R
LOGAN          CLOUDY    36  21  55 CALM      30.30R
BLUEFIELD        N/A     29  20  69 W5        30.30R
LEWISBURG        N/A     25  19  78 CALM      30.32R
$$

WVZ047-160500-
Northern Mountains of West Virginia

CITY           SKY/WX    TMP DP  RH WIND       PRES   REMARKS
ELKINS         CLOUDY    31  20  63 S5        30.28S
$$

WVZ052-160500-
Eastern Panhandle of West Virginia

CITY           SKY/WX    TMP DP  RH WIND       PRES   REMARKS
MARTINSBURG    CLOUDY    25  19  78 CALM      30.44R
PETERSBURG     CLOUDY    21  17  83 CALM      30.39F
$$



USA.gov is the U.S. government's official web portal to all federal, state and local government web resources and services.